| time (UTC) | temp C | wind direction | speed KPH | gust KPH | rain 1hr cm | rain 24hr cm | rain mn cm | humidity % | barometer mb |
| 20260504141313 | 15 | 208 | 11.3 | 22.5 | 0.00 | 0.00 | 0.00 | 41 | 1013.3 |
| 20260504140341 | 14 | 184 | 8.0 | 12.9 | 0.00 | 0.00 | 0.00 | 43 | 1013.3 |
| 20260504130324 | 12 | 176 | 4.8 | 17.7 | 0.00 | 0.00 | 0.00 | 45 | 1013.6 |
| 20260504120317 | 11 | 205 | 3.2 | 11.3 | 0.00 | 0.00 | 0.00 | 51 | 1013.7 |
| 20260504110325 | 8 | 213 | 1.6 | 6.4 | 0.00 | 0.00 | 0.00 | 57 | 1014.0 |
| 20260504100317 | 7 | 226 | 1.6 | 8.0 | 0.00 | 0.00 | 0.00 | 61 | 1013.8 |
| 20260504013334 | 8 | 297 | 0.0 | 0.0 | 0.00 | 0.00 | 0.00 | 64 | 1012.5 |
| 20260504012336 | 8 | 297 | 0.0 | 3.2 | 0.00 | 0.00 | 0.00 | 60 | 1012.4 |
| 20260504011322 | 8 | 298 | 0.0 | 3.2 | 0.00 | 0.00 | 0.00 | 58 | 1012.3 |
| 20260504010327 | 9 | 297 | 0.0 | 0.0 | 0.00 | 0.00 | 0.00 | 54 | 1012.2 |
| 20260504005321 | 10 | 298 | 0.0 | 1.6 | 0.00 | 0.00 | 0.00 | 50 | 1012.0 |
| 20260504004326 | 11 | 297 | 0.0 | 0.0 | 0.00 | 0.00 | 0.00 | 48 | 1012.0 |
| 20260504003313 | 11 | 297 | 1.6 | 3.2 | 0.00 | 0.00 | 0.00 | 44 | 1011.9 |
| 20260504001315 | 11 | 298 | 3.2 | 6.4 | 0.00 | 0.00 | 0.00 | 42 | 1011.6 |
| 20260504000320 | 12 | 307 | 4.8 | 8.0 | 0.00 | 0.00 | 0.00 | 41 | 1011.5 |
| 20260503235320 | 12 | 302 | 4.8 | 12.9 | 0.00 | 0.00 | 0.00 | 41 | 1011.3 |
| 20260503234324 | 12 | 311 | 8.0 | 14.5 | 0.00 | 0.00 | 0.00 | 40 | 1011.2 |
| 20260503233324 | 12 | 326 | 9.7 | 16.1 | 0.00 | 0.00 | 0.00 | 39 | 1011.1 |
| 20260503232354 | 12 | 318 | 6.4 | 17.7 | 0.00 | 0.00 | 0.00 | 38 | 1011.1 |
| 20260503231325 | 12 | 322 | 12.9 | 22.5 | 0.00 | 0.00 | 0.00 | 37 | 1011.0 |
| 20260503230330 | 13 | 297 | 8.0 | 16.1 | 0.00 | 0.00 | 0.00 | 36 | 1011.0 |
| 20260503225329 | 12 | 324 | 11.3 | 22.5 | 0.00 | 0.00 | 0.00 | 36 | 1010.9 |
| 20260503224314 | 13 | 291 | 11.3 | 17.7 | 0.00 | 0.00 | 0.00 | 36 | 1010.9 |
| 20260503223327 | 13 | 284 | 11.3 | 24.1 | 0.00 | 0.00 | 0.00 | 35 | 1010.8 |
| 20260503222313 | 13 | 291 | 9.7 | 14.5 | 0.00 | 0.00 | 0.00 | 34 | 1010.7 |
| 20260503221320 | 13 | 337 | 4.8 | 12.9 | 0.00 | 0.00 | 0.00 | 35 | 1010.8 |
| 20260503220353 | 13 | 295 | 8.0 | 17.7 | 0.00 | 0.00 | 0.00 | 34 | 1010.8 |
| 20260503215317 | 13 | 311 | 6.4 | 16.1 | 0.00 | 0.00 | 0.00 | 35 | 1010.8 |
| 20260503214322 | 13 | 295 | 11.3 | 17.7 | 0.00 | 0.00 | 0.00 | 33 | 1010.7 |
| 20260503213327 | 13 | 286 | 8.0 | 19.3 | 0.00 | 0.00 | 0.00 | 34 | 1010.5 |
| 20260503212331 | 13 | 241 | 8.0 | 24.1 | 0.00 | 0.00 | 0.00 | 34 | 1010.5 |
| 20260503211336 | 12 | 324 | 16.1 | 22.5 | 0.00 | 0.00 | 0.00 | 33 | 1010.6 |
| 20260503210340 | 12 | 307 | 12.9 | 24.1 | 0.00 | 0.00 | 0.00 | 34 | 1010.6 |
| 20260503205322 | 12 | 315 | 14.5 | 27.4 | 0.00 | 0.00 | 0.00 | 33 | 1010.7 |
| 20260503204335 | 12 | 338 | 9.7 | 20.9 | 0.00 | 0.00 | 0.00 | 33 | 1010.7 |
| 20260503203337 | 12 | 265 | 12.9 | 24.1 | 0.00 | 0.00 | 0.00 | 33 | 1010.7 |
| 20260503202331 | 12 | 272 | 11.3 | 27.4 | 0.00 | 0.00 | 0.00 | 35 | 1010.8 |
| 20260503201335 | 12 | 305 | 11.3 | 20.9 | 0.00 | 0.00 | 0.00 | 37 | 1010.7 |
| 20260503200320 | 12 | 330 | 11.3 | 22.5 | 0.00 | 0.00 | 0.00 | 34 | 1010.9 |
| 20260503195351 | 12 | 326 | 14.5 | 27.4 | 0.00 | 0.00 | 0.00 | 33 | 1010.8 |
| 20260503194315 | 12 | 329 | 16.1 | 24.1 | 0.00 | 0.00 | 0.00 | 34 | 1010.8 |
| 20260503193330 | 12 | 276 | 12.9 | 25.7 | 0.00 | 0.00 | 0.00 | 36 | 1010.9 |
| 20260503192332 | 11 | 233 | 6.4 | 22.5 | 0.00 | 0.00 | 0.00 | 37 | 1011.1 |
| 20260503191338 | 11 | 342 | 14.5 | 27.4 | 0.00 | 0.00 | 0.00 | 35 | 1011.1 |
| 20260503190323 | 11 | 344 | 11.3 | 22.5 | 0.00 | 0.00 | 0.00 | 38 | 1011.3 |
| 20260503185318 | 11 | 275 | 4.8 | 24.1 | 0.00 | 0.00 | 0.00 | 38 | 1011.3 |
| 20260503184322 | 11 | 295 | 8.0 | 22.5 | 0.00 | 0.00 | 0.00 | 38 | 1011.4 |
| 20260503183316 | 10 | 322 | 8.0 | 27.4 | 0.00 | 0.00 | 0.00 | 39 | 1011.4 |
| 20260503182328 | 11 | 290 | 16.1 | 24.1 | 0.00 | 0.00 | 0.00 | 37 | 1011.4 |
| 20260503181326 | 10 | 7 | 9.7 | 19.3 | 0.00 | 0.00 | 0.00 | 40 | 1011.6 |
| 20260503180324 | 10 | 286 | 11.3 | 22.5 | 0.00 | 0.00 | 0.00 | 41 | 1011.6 |
| 20260503175329 | 10 | 314 | 9.7 | 16.1 | 0.00 | 0.00 | 0.00 | 38 | 1011.8 |
| 20260503174331 | 10 | 296 | 14.5 | 25.7 | 0.00 | 0.00 | 0.00 | 41 | 1011.6 |
| 20260503173335 | 9 | 284 | 11.3 | 27.4 | 0.00 | 0.00 | 0.00 | 43 | 1011.8 |
| 20260503172322 | 9 | 299 | 8.0 | 24.1 | 0.00 | 0.00 | 0.00 | 43 | 1011.9 |
| 20260503171325 | 8 | 290 | 8.0 | 22.5 | 0.00 | 0.00 | 0.00 | 48 | 1011.9 |
| 20260503170321 | 8 | 309 | 8.0 | 20.9 | 0.00 | 0.00 | 0.00 | 46 | 1012.1 |
| 20260503150312 | 7 | 330 | 8.0 | 17.7 | 0.00 | 0.00 | 0.00 | 51 | 1012.4 |